Regional Weather Roundup
Issued by NWS

Home | Current Version | Previous Version | Text Only | Print | Product List | Glossary On
Versions: 1 2 3 4 5 6 7 8 9 10 11 12 13 14 15 16 17 18 19 20 21 22 23 24 25 26 27 28 29 30 31 32 33 34 35 36 37 38 39 40 41 42 43 44 45 46 47 48 49 50
000
ASUS43 KBIS 190210
RWRND

NORTH DAKOTA REGIONAL WEATHER ROUNDUP
NATIONAL WEATHER SERVICE BISMARCK ND
900 PM CDT WED OCT 18 2017

NOTE: "FAIR" INDICATES FEW OR NO CLOUDS BELOW 12,000 FEET WITH NO
SIGNIFICANT WEATHER AND/OR OBSTRUCTIONS TO VISIBILITY.


NDZ001>003-009>011-017-190300-
NORTHWEST NORTH DAKOTA

CITY           SKY/WX    TMP DP  RH WIND       PRES   REMARKS
WILLISTON      CLOUDY    39  25  57 CALM      29.88F
MINOT          CLOUDY    45  24  43 SW8       29.90S
MINOT AFB      CLOUDY    38  21  50 SW6       29.88S
$$

NDZ018>021-031>035-040>046-190300-
SOUTHWEST NORTH DAKOTA

CITY           SKY/WX    TMP DP  RH WIND       PRES   REMARKS
BISMARCK       CLOUDY    44  25  47 CALM      29.97R
DICKINSON      CLOUDY    41  25  53 S5        29.92F
GARRISON         N/A     43  23  45 CALM      29.92F
HETTINGER ARPT CLOUDY    46  25  43 SE6       29.96F
$$

NDZ004>008-012>016-024-026-027-054-190300-
NORTHEAST NORTH DAKOTA

CITY           SKY/WX    TMP DP  RH WIND       PRES   REMARKS
GRAND FORKS    PTCLDY    51  21  30 W16G23    29.86F
GRND FRKS AFB  CLEAR     49  19  30 W16G23    29.88R
DEVILS LAKE    CLEAR     48  27  44 W16       29.90S
$$

NDZ022-023-025-028>030-036>039-047>053-190300-
SOUTHEAST NORTH DAKOTA

CITY           SKY/WX    TMP DP  RH WIND       PRES   REMARKS
FARGO          CLEAR     48  23  37 W10       29.94S
JAMESTOWN      CLOUDY    46  23  40 SW6       29.95R
$$




USA.gov is the U.S. government's official web portal to all federal, state and local government web resources and services.